| time (UTC) | temp F | wind direction | speed MPH | gust MPH | rain 1hr in | rain 24hr in | rain mn in | humidity % | barometer mb |
| 20260503174531 | 55 | 305 | 9.0 | 20.0 | 0.00 | 0.00 | 0.00 | 41 | 1011.3 |
| 20260503174525 | 55 | 309 | 9.0 | 20.0 | 0.00 | 0.00 | 0.00 | 41 | 1012.2 |
| 20260503173018 | 54 | 253 | 6.0 | 18.0 | 0.00 | 0.00 | 0.00 | 45 | 1011.5 |
| 20260503172005 | 55 | 311 | 8.0 | 16.0 | 0.00 | 0.00 | 0.00 | 47 | 1012.2 |
| 20260503171618 | 54 | 279 | 6.0 | 16.0 | 0.00 | 0.00 | 0.00 | 50 | 1011.7 |
| 20260503171004 | 54 | 300 | 8.0 | 17.0 | 0.00 | 0.00 | 0.00 | 46 | 1012.2 |
| 20260503130120 | 48 | 345 | 6.0 | 16.0 | 0.00 | 0.00 | 0.00 | 60 | 1012.1 |
| 20260503110133 | 45 | 334 | 7.0 | 15.0 | 0.00 | 0.00 | 0.00 | 60 | 1011.3 |
| 20260503081507 | 45 | 360 | 3.0 | 6.0 | 0.00 | 0.00 | 0.00 | 65 | 1010.1 |
| 20260503071547 | 46 | 355 | 3.0 | 6.0 | 0.00 | 0.00 | 0.00 | 62 | 1009.3 |
| 20260503071003 | 46 | 351 | 4.0 | 7.0 | 0.00 | 0.00 | 0.00 | 62 | 1009.9 |
| 20260503054007 | 49 | 323 | 3.0 | 8.0 | 0.00 | 0.00 | 0.00 | 57 | 1010.4 |
| 20260503053504 | 49 | 335 | 3.0 | 8.0 | 0.00 | 0.00 | 0.00 | 56 | 1010.5 |
| 20260503053130 | 49 | 324 | 2.0 | 8.0 | 0.00 | 0.00 | 0.00 | 56 | 1009.8 |
| 20260503053007 | 49 | 337 | 4.0 | 8.0 | 0.00 | 0.00 | 0.00 | 56 | 1010.4 |
| 20260503051538 | 49 | 340 | 2.0 | 8.0 | 0.00 | 0.00 | 0.00 | 56 | 1009.8 |
| 20260503050041 | 49 | 325 | 2.0 | 5.0 | 0.00 | 0.00 | 0.00 | 56 | 1009.9 |
| 20260503044005 | 50 | 322 | 2.0 | 5.0 | 0.00 | 0.00 | 0.00 | 55 | 1010.9 |
| 20260503043108 | 50 | 330 | 2.0 | 5.0 | 0.00 | 0.00 | 0.00 | 54 | 1010.2 |
| 20260503041526 | 50 | 325 | 3.0 | 8.0 | 0.00 | 0.00 | 0.00 | 53 | 1010.2 |
| 20260503040120 | 51 | 320 | 2.0 | 6.0 | 0.00 | 0.00 | 0.00 | 53 | 1010.3 |
| 20260503040029 | 51 | 321 | 3.0 | 6.0 | 0.00 | 0.00 | 0.00 | 52 | 1011.0 |
| 20260503034615 | 51 | 336 | 3.0 | 8.0 | 0.00 | 0.00 | 0.00 | 52 | 1010.2 |
| 20260503034505 | 51 | 319 | 4.0 | 8.0 | 0.00 | 0.00 | 0.00 | 52 | 1010.9 |
| 20260503031600 | 51 | 335 | 3.0 | 9.0 | 0.00 | 0.00 | 0.00 | 52 | 1010.1 |
| 20260503031503 | 52 | 329 | 4.0 | 9.0 | 0.00 | 0.00 | 0.00 | 53 | 1010.8 |
| 20260503030104 | 51 | 338 | 4.0 | 8.0 | 0.00 | 0.00 | 0.00 | 53 | 1010.1 |
| 20260503024616 | 51 | 320 | 3.0 | 6.0 | 0.00 | 0.00 | 0.00 | 53 | 1010.2 |
| 20260503024004 | 52 | 316 | 2.0 | 3.0 | 0.00 | 0.00 | 0.00 | 53 | 1010.9 |
| 20260503023013 | 51 | 312 | 2.0 | 5.0 | 0.00 | 0.00 | 0.00 | 53 | 1010.2 |
| 20260503022006 | 52 | 327 | 2.0 | 4.0 | 0.00 | 0.00 | 0.00 | 53 | 1011.0 |
| 20260503021508 | 52 | 332 | 2.0 | 4.0 | 0.00 | 0.00 | 0.00 | 52 | 1010.3 |
| 20260503020003 | 52 | 312 | 1.0 | 4.0 | 0.00 | 0.00 | 0.00 | 51 | 1010.3 |
| 20260503014538 | 53 | 338 | 2.0 | 5.0 | 0.00 | 0.00 | 0.00 | 50 | 1010.2 |
| 20260503013113 | 53 | 350 | 2.0 | 4.0 | 0.00 | 0.00 | 0.00 | 50 | 1010.1 |
| 20260503012504 | 54 | 312 | 3.0 | 5.0 | 0.00 | 0.00 | 0.00 | 50 | 1010.8 |
| 20260503012011 | 54 | 310 | 3.0 | 5.0 | 0.00 | 0.00 | 0.00 | 49 | 1010.8 |
| 20260503011537 | 53 | 334 | 3.0 | 5.0 | 0.00 | 0.00 | 0.00 | 48 | 1010.2 |
| 20260503010010 | 53 | 300 | 2.0 | 5.0 | 0.00 | 0.00 | 0.00 | 48 | 1010.1 |
| 20260503010005 | 54 | 327 | 2.0 | 5.0 | 0.00 | 0.00 | 0.00 | 48 | 1010.8 |
| 20260503004534 | 54 | 312 | 2.0 | 6.0 | 0.00 | 0.00 | 0.00 | 48 | 1009.8 |
| 20260503004504 | 54 | 321 | 2.0 | 6.0 | 0.00 | 0.00 | 0.00 | 49 | 1010.4 |
| 20260503003113 | 54 | 306 | 1.0 | 4.0 | 0.00 | 0.00 | 0.00 | 50 | 1009.7 |
| 20260503001522 | 54 | 286 | 0.0 | 3.0 | 0.00 | 0.00 | 0.00 | 49 | 1009.6 |
| 20260503000020 | 55 | 308 | 2.0 | 4.0 | 0.00 | 0.00 | 0.00 | 47 | 1009.3 |
| 20260502234525 | 55 | 329 | 3.0 | 4.0 | 0.00 | 0.00 | 0.00 | 47 | 1009.3 |
| 20260502233503 | 56 | 333 | 3.0 | 6.0 | 0.00 | 0.00 | 0.00 | 47 | 1009.9 |
| 20260502233107 | 55 | 329 | 3.0 | 6.0 | 0.00 | 0.00 | 0.00 | 46 | 1009.2 |
| 20260502231634 | 56 | 355 | 3.0 | 8.0 | 0.00 | 0.00 | 0.00 | 44 | 1009.3 |
| 20260502231504 | 57 | 324 | 4.0 | 10.0 | 0.00 | 0.00 | 0.00 | 44 | 1010.1 |
| 20260502225505 | 59 | 318 | 5.0 | 12.0 | 0.00 | 0.00 | 0.00 | 41 | 1010.0 |
| 20260502223009 | 59 | 331 | 6.0 | 12.0 | 0.00 | 0.00 | 0.00 | 41 | 1009.0 |
| 20260502222508 | 60 | 354 | 8.0 | 13.0 | 0.00 | 0.00 | 0.00 | 41 | 1009.6 |
| 20260502221603 | 60 | 347 | 8.0 | 13.0 | 0.00 | 0.00 | 0.00 | 39 | 1008.8 |
| 20260502220011 | 60 | 30 | 2.0 | 6.0 | 0.00 | 0.00 | 0.00 | 40 | 1009.6 |
| 20260502214542 | 60 | 329 | 2.0 | 4.0 | 0.00 | 0.00 | 0.00 | 43 | 1009.0 |
| 20260502213150 | 59 | 253 | 1.0 | 8.0 | 0.00 | 0.00 | 0.00 | 42 | 1009.0 |
| 20260502211556 | 59 | 323 | 2.0 | 9.0 | 0.00 | 0.00 | 0.00 | 45 | 1008.9 |
| 20260502211005 | 60 | 285 | 3.0 | 9.0 | 0.00 | 0.00 | 0.00 | 45 | 1009.5 |
| 20260502210046 | 59 | 238 | 2.0 | 4.0 | 0.00 | 0.00 | 0.00 | 44 | 1008.6 |
| 20260502205004 | 59 | 323 | 4.0 | 9.0 | 0.00 | 0.00 | 0.00 | 47 | 1009.3 |
| 20260502204532 | 59 | 223 | 4.0 | 9.0 | 0.00 | 0.00 | 0.00 | 45 | 1008.7 |
| 20260502204504 | 59 | 324 | 4.0 | 8.0 | 0.00 | 0.00 | 0.00 | 45 | 1009.4 |
| 20260502203108 | 59 | 290 | 2.0 | 11.0 | 0.00 | 0.00 | 0.00 | 46 | 1008.8 |
| 20260502201531 | 59 | 332 | 5.0 | 13.0 | 0.00 | 0.00 | 0.00 | 47 | 1009.0 |
| 20260502201527 | 59 | 318 | 4.0 | 13.0 | 0.00 | 0.00 | 0.00 | 45 | 1009.7 |
| 20260502200510 | 59 | 314 | 3.0 | 8.0 | 0.00 | 0.00 | 0.00 | 48 | 1009.8 |
| 20260502200017 | 58 | 295 | 3.0 | 7.0 | 0.00 | 0.00 | 0.00 | 47 | 1009.1 |
| 20260502194601 | 58 | 238 | 2.0 | 10.0 | 0.00 | 0.00 | 0.00 | 46 | 1009.3 |
| 20260502192011 | 60 | 304 | 4.0 | 10.0 | 0.00 | 0.00 | 0.00 | 49 | 1010.4 |
| 20260502191659 | 60 | 322 | 5.0 | 10.0 | 0.00 | 0.00 | 0.00 | 48 | 1009.8 |
| 20260502191004 | 59 | 309 | 6.0 | 13.0 | 0.00 | 0.00 | 0.00 | 46 | 1010.5 |
| 20260502190512 | 59 | 314 | 5.0 | 13.0 | 0.00 | 0.00 | 0.00 | 45 | 1010.5 |
| 20260502190048 | 59 | 34 | 3.0 | 10.0 | 0.00 | 0.00 | 0.00 | 49 | 1010.0 |
| 20260502185504 | 60 | 282 | 3.0 | 5.0 | 0.00 | 0.00 | 0.00 | 47 | 1010.7 |
| 20260502184533 | 59 | 258 | 3.0 | 10.0 | 0.00 | 0.00 | 0.00 | 48 | 1010.1 |
| 20260502183503 | 59 | 303 | 5.0 | 12.0 | 0.00 | 0.00 | 0.00 | 49 | 1011.0 |
| 20260502181642 | 58 | 351 | 7.0 | 10.0 | 0.00 | 0.00 | 0.00 | 46 | 1010.3 |